Location: ?????
(31.8092°N, 35.2590°E)
Time: 17:07:39
(UTC+00:00)

Cosmos 2151 Rocket - Pass Details

Date: 20 June 2021
Orbit: 617 x 642 km, 82.5° (Epoch: 03 August)

Event Time Altitude Azimuth Distance (km) Brightness Sun altitude
Rises 17:35:04 0° 351° (N) 2,894 7.7 -9.4°
Reaches altitude 10° 17:37:18 10° 349° (N) 1,984 6.9 -9.8°
Maximum altitude 17:41:41 73° 265° (W) 647 3.8 -10.6°
Drops below altitude 10° 17:46:02 10° 181° (S) 1,975 5.8 -11.3°
Enters shadow 17:47:41 - 180° (S) 2,645 6.4 -11.6°
